Starlink 35169

operational
NORAD ID: 65465 Int'l Des: 2025-195 Owner: SPXS Country: US Constellation: starlink
LEOCIRCULAR

About Starlink 35169

Description loading...

Live Position

Loading 3D Globe...

Upcoming Passes

Altitude History

Altitude vs Time

uPlot chart will show altitude changes over time

Two-Line Element Set

1 65465U 25195H 25293.90210305 .00066486 00000-0 16553-2 0 9991
2 65465 53.1598 189.4644 0001238 37.8596 322.2495 15.39663514 8566
Epoch: Oct 20, 2025 • Age: 15 hours

Current Status

Altitude 465.6 km
Velocity 7.63 km/s
Sub-Earth Point -52.12°S, 142.37°W
Launch Date Sep 3, 2025
Age 0.1 years
Type internet

Technical Details

Classification Payload
Mass 575.00 kg
Dry Mass 530.00 kg
Total Mass 575.00 kg
Length 0.30 m
Diameter 4.10 m
Span 29.00 m
Shape Box + pan
Manufacturer SPXS
Bus Type Starlink V2MO
Phase Status In Orbit
Owner/State SPXS/US

Large Constellations

Loading constellations...